SCP
0 1 1 2 2 2 2 2 2 2 2 1 1 1 0 0 0 1 1 0 0 0 0 0 0 0 0 0 0 0 -0 0 -0 -0 0 0 0 0 0 0 0 0 0
0 0 0 1 1 1 2 1 1 2 2 1 1 1 1 0 0 0 0 0 0 0 0 0 0 -0 -0 0 0 0 -0 0 0 -0 -0 -0 0 0 0 0 0 0 0
0 0 0 0 0 0 0 0 1 2 2 1 1 1 1 1 1 0 0 0 0 0 0 0 0 0 -0 0 0 0 0 -0 -0 -0 -0 -0 -0 0 0 0 0 0 0
0 0 0 0 0 0 0 0 0 0 0 1 1 1 1 1 1 1 0 0 0 1 0 0 -0 0 0 0 0 0 0 0 0 -0 -0 -0 -0 0 0 0 0 0 0
0 0 0 0 0 0 0 0 0 0 0 0 1 1 1 1 1 1 1 0 0 0 1 0 0 0 0 0 0 0 -0 -0 0 0 0 0 0 0 0 0 0 0 0
0 0 0 0 0 0 0 0 0 0 0 0 0 1 1 1 1 1 1 1 0 0 0 0 0 0 0 0 0 0 -0 -0 -0 0 0 0 0 0 0 0 0 0 0
0 0 0 0 0 0 0 0 0 0 0 -0 0 1 0 1 0 0 1 1 1 0 0 0 1 0 0 0 0 0 -0 -0 -0 -0 -0 0 0 0 0 0 -0 -0 0
0 0 0 0 0 0 0 0 0 0 0 1 2 1 2 2 1 0 1 1 1 1 0 0 0 0 0 0 0 0 0 0 0 0 -0 -0 -0 0 0 0 -0 -0 -0
0 0 0 0 0 0 0 0 0 0 0 0 1 0 0 0 2 1 0 1 1 2 1 1 0 0 0 0 0 0 0 0 0 0 0 0 0 -0 -0 -0 -0 0 -0
0 0 0 0 0 0 0 0 0 0 0 0 2 1 0 1 1 0 0 0 1 2 2 1 1 1 0 1 0 0 0 0 0 0 0 0 0 -0 -0 -0 -0 -0 0
0 0 0 0 0 0 0 0 0 0 0 0 0 1 1 0 0 0 0 1 0 1 1 2 2 2 1 1 1 0 0 0 0 0 0 0 0 0 -0 -0 -0 -0 -0
0 0 0 0 0 0 0 0 0 0 0 0 0 0 0 1 0 0 0 0 0 1 2 2 2 2 1 1 1 1 0 0 0 0 0 0 0 0 0 -0 -0 -0 -0
0 0 0 0 0 0 0 0 0 0 0 0 0 0 0 1 0 0 0 0 0 0 1 1 1 1 2 2 1 0 0 0 0 0 0 0 0 0 0 0 0 -0 -0
0 0 0 0 0 0 0 0 0 0 0 0 0 0 0 0 0 0 0 0 0 0 0 0 1 1 1 1 1 0 0 0 0 0 0 0 0 0 0 0 0 0 -0
0 0 0 0 0 0 0 0 0 0 0 0 0 0 0 0 0 1 0 0 0 0 0 0 0 0 0 0 0 0 0 0 0 0 0 0 0 0 0 0 0 0 0
0 0 0 0 0 0 0 0 0 0 0 0 0 0 0 0 0 0 0 0 0 0 0 0 0 0 0 0 -0 -0 0 0 0 0 0 0 0 0 0 0 0 0 0
0 0 -0 0 0 0 0 0 0 0 0 0 0 0 0 0 0 0 0 0 0 0 0 0 0 0 -0 -0 0 -0 -0 0 0 0 0 0 0 0 0 0 0 0 0
-0 -0 -0 -0 0 0 0 0 0 0 0 0 0 0 0 0 0 0 0 0 0 0 1 0 0 0 0 0 0 -0 -0 0 0 0 0 0 0 0 0 0 0 0 0
-0 -0 -0 -0 -0 -0 -0 -0 0 0 0 0 0 0 0 0 0 0 0 0 0 0 0 1 0 0 0 0 0 0 0 0 0 0 0 0 0 0 0 0 0 0 0
-0 -0 -0 -0 -0 -0 -0 -0 -0 -0 0 0 0 0 0 0 0 0 0 0 0 0 0 0 0 0 1 0 0 -0 -0 -0 -0 0 0 0 0 0 0 0 0 0 0
-0 -0 -0 -0 -0 -0 -0 -0 -0 -0 -0 0 0 0 0 0 0 0 0 0 0 0 0 0 0 0 0 0 0 -0 -0 -0 -0 0 0 0 0 0 0 0 0 0 0
0 -0 -0 -0 -0 -0 0 -0 -0 -0 -0 -0 0 0 0 0 0 0 0 0 0 0 0 0 0 0 0 0 0 0 0 0 0 0 0 0 0 0 0 0 0 0 0
0 0 0 0 -0 -0 -0 -0 -0 -0 -0 -0 -0 0 0 0 0 0 0 0 0 0 0 0 0 0 0 0 0 0 0 0 0 0 0 0 0 0 0 0 0 0 0
-0 -0 0 0 0 0 -0 -0 0 0 -0 -0 -0 -0 -0 -0 -0 0 0 0 0 0 0 0 0 0 0 0 0 0 0 0 0 0 0 0 0 0 0 0 0 0 0
-0 -0 -0 0 0 0 -0 -0 0 0 0 -0 -0 -0 -0 -0 -0 -0 0 0 0 0 0 0 0 0 0 0 0 0 0 0 0 0 0 0 0 0 0 0 0 0 0
-0 -0 0 0 -0 0 -0 -0 0 0 0 0 0 0 -0 -0 -0 -0 0 0 0 0 0 0 0 0 0 0 0 0 0 0 0 0 0 0 0 0 0 0 0 0 0
Wind_Speed_500mb
36 45 47 52 55 58 61 63 61 61 60 55 55 56 53 50 49 48 48 47 41 41 39 37 38 41 43 45 45 42 38 35 34 32 29 27 26 26 25 27 29 30 33
34 33 33 47 45 53 54 57 65 66 66 61 60 60 57 56 52 53 52 52 50 45 46 44 42 42 43 49 49 48 45 41 39 37 33 30 29 27 25 24 27 30 37
32 33 34 30 49 50 52 46 49 64 70 70 67 64 63 60 58 57 57 56 56 56 53 51 47 46 47 50 51 52 50 47 46 43 39 35 32 32 29 27 26 27 35
42 44 43 35 42 39 57 54 78 60 51 73 73 70 65 62 60 61 62 62 61 62 60 56 55 52 50 51 50 54 54 53 50 48 47 40 37 37 34 32 29 27 31
51 52 53 52 50 48 47 46 45 64 71 66 75 67 68 65 65 63 66 69 68 67 68 63 59 59 55 53 52 54 56 58 56 53 51 48 43 40 40 37 35 33 31
55 58 60 60 57 55 50 49 50 50 45 97 66 55 58 64 67 68 69 72 75 73 73 73 64 64 62 58 55 56 59 59 56 58 57 57 51 47 46 44 42 41 37
63 61 64 64 65 64 57 52 54 53 46 52 59 74 69 63 67 69 71 76 79 79 79 76 73 70 69 65 59 59 61 60 58 57 59 61 57 54 51 51 48 44 39
68 68 69 68 67 69 69 55 57 58 61 69 72 74 57 61 71 74 77 78 84 84 82 80 78 79 74 71 69 64 64 64 61 60 57 56 55 53 53 54 57 47 50
67 68 68 70 69 72 73 68 63 66 67 71 77 80 43 60 43 48 69 84 89 90 92 89 84 84 82 78 73 71 68 66 66 64 62 61 61 59 52 54 56 54 55
65 62 64 67 68 69 75 76 70 69 71 72 70 88 102 62 40 68 73 72 80 94 100 95 97 91 87 83 80 79 76 71 69 66 65 65 65 62 59 57 57 58 53
60 61 56 56 58 59 68 74 80 72 73 82 68 77 79 100 99 63 30 56 49 87 98 92 98 94 92 86 84 84 80 76 77 73 67 64 65 64 63 60 57 60 54
57 54 52 47 54 57 59 69 76 80 74 78 86 67 83 79 80 78 88 54 55 40 59 91 93 93 90 87 85 83 85 81 76 71 71 69 67 64 63 63 60 61 58
52 53 50 52 52 55 59 63 72 78 76 77 85 87 70 88 76 71 82 98 91 71 57 60 67 72 73 77 66 64 90 89 78 76 75 75 74 71 66 64 65 64 64
48 50 50 48 50 54 56 58 65 68 68 77 82 77 75 74 90 96 83 68 65 95 79 77 65 73 66 62 56 47 49 51 76 84 77 79 80 77 74 71 69 68 68
41 43 41 42 44 47 46 55 51 52 56 63 77 82 74 57 75 86 78 80 78 61 76 91 82 73 72 86 82 74 75 64 59 72 87 79 82 79 76 77 76 72 71
38 33 31 29 26 24 26 26 33 34 36 46 62 80 71 71 57 52 96 102 99 90 63 62 77 83 88 117 122 116 102 92 69 58 73 81 80 79 76 74 80 76 74
40 40 36 27 16 8 5 3 8 20 11 16 25 42 53 67 69 65 70 69 78 87 116 111 66 65 96 94 109 117 108 92 66 50 50 68 77 77 75 76 75 75 72
50 50 50 41 32 25 16 4 5 10 18 23 22 28 33 51 46 49 59 64 67 63 71 65 73 76 67 103 112 95 77 80 52 48 51 57 68 76 78 80 79 76 74
66 66 66 62 55 48 40 34 26 20 12 10 6 8 15 31 41 44 45 45 39 51 54 57 62 61 61 74 75 77 87 73 77 56 57 64 73 77 81 82 83 79 76
75 79 79 79 72 65 58 53 46 42 39 34 28 22 17 4 18 33 42 46 44 39 45 52 50 50 45 47 59 54 68 68 69 74 86 65 64 68 81 88 88 86 83
70 76 79 81 82 80 71 64 64 61 57 53 51 49 44 33 20 6 24 29 28 31 32 29 36 44 46 44 61 58 58 56 71 83 88 94 66 71 78 89 92 89 88
66 68 75 76 78 79 72 69 65 69 69 68 64 60 56 49 46 38 31 18 16 10 21 16 12 16 24 26 35 43 63 75 66 70 75 79 78 66 74 77 80 82 88
63 70 74 78 78 72 65 65 65 66 67 73 70 67 65 63 58 52 48 40 30 19 15 19 14 10 18 25 40 40 42 46 46 50 56 54 58 58 60 68 74 77 78
69 71 75 75 77 77 70 68 68 69 67 66 65 66 63 63 60 53 48 50 51 45 45 40 35 31 25 20 19 24 29 34 45 40 33 46 50 59 71 70 73 72 75
65 68 69 71 73 76 71 68 67 68 69 72 70 70 66 63 55 50 45 49 50 51 44 38 32 29 27 19 19 8 11 11 14 23 22 17 28 36 38 47 48 68 74
64 65 68 69 71 71 70 69 67 69 69 69 68 72 73 67 61 57 53 50 44 47 37 30 28 27 29 27 29 28 33 28 15 8 24 13 10 9 13 16 23 33 35
Wind_Direction_500mb
268 268 262 252 250 250 249 249 245 246 245 243 241 239 237 238 239 238 235 230 231 227 226 224 222 222 223 221 221 223 225 222 220 218 217 219 223 228 233 234 226 223 216
274 268 267 270 263 262 261 261 258 252 251 248 245 245 241 241 240 242 239 235 231 233 230 231 228 226 226 225 223 224 225 226 225 224 224 227 230 232 232 232 230 230 213
274 275 257 262 280 272 261 259 262 261 253 249 249 246 245 242 242 243 242 239 235 235 235 234 233 230 229 231 227 228 225 225 226 227 226 233 239 236 236 237 238 237 216
271 273 275 261 245 254 269 286 261 273 261 254 247 249 249 247 246 246 247 243 237 234 236 236 234 234 233 233 232 231 230 231 230 230 230 235 239 238 238 241 245 245 232
272 271 271 272 271 266 264 277 274 289 266 276 248 249 252 251 249 248 249 249 244 237 235 239 238 236 234 233 232 229 231 233 233 234 237 239 239 241 240 244 247 247 240
266 265 265 267 267 266 265 266 269 263 278 251 258 259 255 257 256 250 249 250 249 243 239 239 242 237 235 236 234 231 229 234 236 239 240 241 243 243 239 243 249 244 249
275 270 266 265 266 268 262 255 261 263 255 228 229 255 259 256 258 257 246 248 249 247 243 240 238 238 238 238 238 235 233 232 236 242 245 245 246 247 242 242 248 246 250
281 278 276 271 267 266 267 256 250 250 249 240 227 224 239 250 257 261 253 243 244 245 243 241 237 238 240 240 238 239 238 235 236 242 245 247 247 248 244 241 244 249 248
284 281 276 274 270 266 262 260 247 241 242 249 241 228 232 238 237 257 264 248 244 242 241 241 241 240 241 241 242 242 241 242 241 242 245 247 250 250 252 247 246 246 248
293 283 278 274 269 264 261 256 254 240 234 239 244 239 240 240 224 230 256 256 244 240 241 240 242 241 241 243 244 246 246 245 246 246 249 250 250 250 253 253 250 249 249
299 296 287 275 270 265 259 254 251 246 234 232 239 239 244 236 230 237 252 252 256 242 240 241 241 242 243 246 248 251 250 248 248 247 248 249 249 250 250 254 254 252 253
301 301 300 286 282 277 268 258 253 253 245 235 232 240 235 232 228 223 229 232 247 252 251 239 239 240 243 247 250 254 256 255 251 250 246 245 246 248 247 250 253 251 252
308 302 294 291 287 283 281 267 254 253 242 235 231 234 244 233 228 220 229 228 244 254 261 255 247 243 243 247 247 252 256 256 255 254 249 246 244 245 248 248 250 251 251
312 305 296 286 275 275 274 270 266 257 252 242 233 234 241 240 232 232 228 219 220 235 250 250 246 239 236 236 237 249 266 268 259 251 252 250 248 245 246 247 245 246 248
328 318 310 295 285 277 274 267 265 269 257 250 237 235 242 243 238 235 236 235 230 239 241 238 238 243 249 248 251 255 267 272 277 254 245 248 248 247 247 245 244 245 246
4 348 337 324 303 284 298 275 260 262 257 252 244 238 246 240 247 246 244 244 250 239 246 237 246 253 254 266 257 253 256 269 270 264 242 240 243 245 246 244 244 243 244
29 23 19 15 10 339 294 274 268 263 280 289 273 257 250 248 253 250 252 244 251 248 246 249 242 238 249 241 236 247 256 256 261 261 252 239 241 241 244 242 242 241 244
45 47 43 45 49 54 59 103 152 123 201 237 250 253 245 240 249 253 254 256 249 243 244 235 240 245 242 229 248 257 243 239 251 260 253 245 241 241 240 241 241 239 240
56 54 55 54 57 59 62 66 78 94 108 109 120 227 243 237 245 247 246 252 247 252 253 247 250 252 253 242 247 253 240 240 251 258 266 260 245 241 240 241 241 240 240
61 59 58 57 59 63 64 66 68 74 77 79 80 80 70 48 234 239 248 251 243 226 234 242 254 251 242 254 250 251 248 253 264 267 263 267 254 243 238 240 239 238 238
56 59 60 61 60 58 59 66 68 67 69 69 69 67 66 66 65 271 249 251 247 241 230 237 237 250 258 262 265 264 264 263 275 274 268 261 260 249 244 238 240 240 239
58 58 60 58 57 60 61 59 61 70 68 66 63 63 65 63 59 54 47 3 322 277 253 272 253 248 259 270 254 254 255 264 253 255 256 256 255 260 251 245 240 239 238
59 61 62 62 60 57 57 58 62 64 61 64 64 66 62 58 54 52 48 54 55 52 46 38 25 346 286 295 273 271 270 260 254 243 246 234 236 241 249 242 239 238 237
59 59 61 62 62 59 56 57 58 60 61 63 61 55 55 54 51 49 49 49 49 49 48 47 47 40 26 355 303 285 278 269 255 273 253 240 238 237 228 227 233 233 238
61 60 58 59 57 57 55 53 56 57 57 56 55 55 52 49 45 44 45 56 57 54 48 46 45 37 21 24 21 6 310 278 247 258 271 247 242 218 229 215 221 221 218
59 58 58 55 55 50 48 50 49 51 51 51 50 48 45 40 37 38 40 45 45 43 38 35 35 34 41 28 29 34 35 29 22 307 358 328 269 294 260 232 243 254 243
Wind_Speed_850mb
36 45 47 52 55 58 61 63 61 61 60 55 55 56 53 50 49 48 48 47 41 41 39 37 38 41 43 45 45 42 38 35 34 32 29 27 26 26 25 27 29 30 33
34 33 33 47 45 53 54 57 65 66 66 61 60 60 57 56 52 53 52 52 50 45 46 44 42 42 43 49 49 48 45 41 39 37 33 30 29 27 25 24 27 30 37
32 33 34 30 49 50 52 46 49 64 70 70 67 64 63 60 58 57 57 56 56 56 53 51 47 46 47 50 51 52 50 47 46 43 39 35 32 32 29 27 26 27 35
42 44 43 35 42 39 57 54 78 60 51 73 73 70 65 62 60 61 62 62 61 62 60 56 55 52 50 51 50 54 54 53 50 48 47 40 37 37 34 32 29 27 31
51 52 53 52 50 48 47 46 45 64 71 66 75 67 68 65 65 63 66 69 68 67 68 63 59 59 55 53 52 54 56 58 56 53 51 48 43 40 40 37 35 33 31
55 58 60 60 57 55 50 49 50 50 45 97 66 55 58 64 67 68 69 72 75 73 73 73 64 64 62 58 55 56 59 59 56 58 57 57 51 47 46 44 42 41 37
63 61 64 64 65 64 57 52 54 53 46 52 59 74 69 63 67 69 71 76 79 79 79 76 73 70 69 65 59 59 61 60 58 57 59 61 57 54 51 51 48 44 39
68 68 69 68 67 69 69 55 57 58 61 69 72 74 57 61 71 74 77 78 84 84 82 80 78 79 74 71 69 64 64 64 61 60 57 56 55 53 53 54 57 47 50
67 68 68 70 69 72 73 68 63 66 67 71 77 80 43 60 43 48 69 84 89 90 92 89 84 84 82 78 73 71 68 66 66 64 62 61 61 59 52 54 56 54 55
65 62 64 67 68 69 75 76 70 69 71 72 70 88 102 62 40 68 73 72 80 94 100 95 97 91 87 83 80 79 76 71 69 66 65 65 65 62 59 57 57 58 53
60 61 56 56 58 59 68 74 80 72 73 82 68 77 79 100 99 63 30 56 49 87 98 92 98 94 92 86 84 84 80 76 77 73 67 64 65 64 63 60 57 60 54
57 54 52 47 54 57 59 69 76 80 74 78 86 67 83 79 80 78 88 54 55 40 59 91 93 93 90 87 85 83 85 81 76 71 71 69 67 64 63 63 60 61 58
52 53 50 52 52 55 59 63 72 78 76 77 85 87 70 88 76 71 82 98 91 71 57 60 67 72 73 77 66 64 90 89 78 76 75 75 74 71 66 64 65 64 64
48 50 50 48 50 54 56 58 65 68 68 77 82 77 75 74 90 96 83 68 65 95 79 77 65 73 66 62 56 47 49 51 76 84 77 79 80 77 74 71 69 68 68
41 43 41 42 44 47 46 55 51 52 56 63 77 82 74 57 75 86 78 80 78 61 76 91 82 73 72 86 82 74 75 64 59 72 87 79 82 79 76 77 76 72 71
38 33 31 29 26 24 26 26 33 34 36 46 62 80 71 71 57 52 96 102 99 90 63 62 77 83 88 117 122 116 102 92 69 58 73 81 80 79 76 74 80 76 74
40 40 36 27 16 8 5 3 8 20 11 16 25 42 53 67 69 65 70 69 78 87 116 111 66 65 96 94 109 117 108 92 66 50 50 68 77 77 75 76 75 75 72
50 50 50 41 32 25 16 4 5 10 18 23 22 28 33 51 46 49 59 64 67 63 71 65 73 76 67 103 112 95 77 80 52 48 51 57 68 76 78 80 79 76 74
66 66 66 62 55 48 40 34 26 20 12 10 6 8 15 31 41 44 45 45 39 51 54 57 62 61 61 74 75 77 87 73 77 56 57 64 73 77 81 82 83 79 76
75 79 79 79 72 65 58 53 46 42 39 34 28 22 17 4 18 33 42 46 44 39 45 52 50 50 45 47 59 54 68 68 69 74 86 65 64 68 81 88 88 86 83
70 76 79 81 82 80 71 64 64 61 57 53 51 49 44 33 20 6 24 29 28 31 32 29 36 44 46 44 61 58 58 56 71 83 88 94 66 71 78 89 92 89 88
66 68 75 76 78 79 72 69 65 69 69 68 64 60 56 49 46 38 31 18 16 10 21 16 12 16 24 26 35 43 63 75 66 70 75 79 78 66 74 77 80 82 88
63 70 74 78 78 72 65 65 65 66 67 73 70 67 65 63 58 52 48 40 30 19 15 19 14 10 18 25 40 40 42 46 46 50 56 54 58 58 60 68 74 77 78
69 71 75 75 77 77 70 68 68 69 67 66 65 66 63 63 60 53 48 50 51 45 45 40 35 31 25 20 19 24 29 34 45 40 33 46 50 59 71 70 73 72 75
65 68 69 71 73 76 71 68 67 68 69 72 70 70 66 63 55 50 45 49 50 51 44 38 32 29 27 19 19 8 11 11 14 23 22 17 28 36 38 47 48 68 74
64 65 68 69 71 71 70 69 67 69 69 69 68 72 73 67 61 57 53 50 44 47 37 30 28 27 29 27 29 28 33 28 15 8 24 13 10 9 13 16 23 33 35
Wind_Direction_850mb
268 268 262 252 250 250 249 249 245 246 245 243 241 239 237 238 239 238 235 230 231 227 226 224 222 222 223 221 221 223 225 222 220 218 217 219 223 228 233 234 226 223 216
274 268 267 270 263 262 261 261 258 252 251 248 245 245 241 241 240 242 239 235 231 233 230 231 228 226 226 225 223 224 225 226 225 224 224 227 230 232 232 232 230 230 213
274 275 257 262 280 272 261 259 262 261 253 249 249 246 245 242 242 243 242 239 235 235 235 234 233 230 229 231 227 228 225 225 226 227 226 233 239 236 236 237 238 237 216
271 273 275 261 245 254 269 286 261 273 261 254 247 249 249 247 246 246 247 243 237 234 236 236 234 234 233 233 232 231 230 231 230 230 230 235 239 238 238 241 245 245 232
272 271 271 272 271 266 264 277 274 289 266 276 248 249 252 251 249 248 249 249 244 237 235 239 238 236 234 233 232 229 231 233 233 234 237 239 239 241 240 244 247 247 240
266 265 265 267 267 266 265 266 269 263 278 251 258 259 255 257 256 250 249 250 249 243 239 239 242 237 235 236 234 231 229 234 236 239 240 241 243 243 239 243 249 244 249
275 270 266 265 266 268 262 255 261 263 255 228 229 255 259 256 258 257 246 248 249 247 243 240 238 238 238 238 238 235 233 232 236 242 245 245 246 247 242 242 248 246 250
281 278 276 271 267 266 267 256 250 250 249 240 227 224 239 250 257 261 253 243 244 245 243 241 237 238 240 240 238 239 238 235 236 242 245 247 247 248 244 241 244 249 248
284 281 276 274 270 266 262 260 247 241 242 249 241 228 232 238 237 257 264 248 244 242 241 241 241 240 241 241 242 242 241 242 241 242 245 247 250 250 252 247 246 246 248
293 283 278 274 269 264 261 256 254 240 234 239 244 239 240 240 224 230 256 256 244 240 241 240 242 241 241 243 244 246 246 245 246 246 249 250 250 250 253 253 250 249 249
299 296 287 275 270 265 259 254 251 246 234 232 239 239 244 236 230 237 252 252 256 242 240 241 241 242 243 246 248 251 250 248 248 247 248 249 249 250 250 254 254 252 253
301 301 300 286 282 277 268 258 253 253 245 235 232 240 235 232 228 223 229 232 247 252 251 239 239 240 243 247 250 254 256 255 251 250 246 245 246 248 247 250 253 251 252
308 302 294 291 287 283 281 267 254 253 242 235 231 234 244 233 228 220 229 228 244 254 261 255 247 243 243 247 247 252 256 256 255 254 249 246 244 245 248 248 250 251 251
312 305 296 286 275 275 274 270 266 257 252 242 233 234 241 240 232 232 228 219 220 235 250 250 246 239 236 236 237 249 266 268 259 251 252 250 248 245 246 247 245 246 248
328 318 310 295 285 277 274 267 265 269 257 250 237 235 242 243 238 235 236 235 230 239 241 238 238 243 249 248 251 255 267 272 277 254 245 248 248 247 247 245 244 245 246
4 348 337 324 303 284 298 275 260 262 257 252 244 238 246 240 247 246 244 244 250 239 246 237 246 253 254 266 257 253 256 269 270 264 242 240 243 245 246 244 244 243 244
29 23 19 15 10 339 294 274 268 263 280 289 273 257 250 248 253 250 252 244 251 248 246 249 242 238 249 241 236 247 256 256 261 261 252 239 241 241 244 242 242 241 244
45 47 43 45 49 54 59 103 152 123 201 237 250 253 245 240 249 253 254 256 249 243 244 235 240 245 242 229 248 257 243 239 251 260 253 245 241 241 240 241 241 239 240
56 54 55 54 57 59 62 66 78 94 108 109 120 227 243 237 245 247 246 252 247 252 253 247 250 252 253 242 247 253 240 240 251 258 266 260 245 241 240 241 241 240 240
61 59 58 57 59 63 64 66 68 74 77 79 80 80 70 48 234 239 248 251 243 226 234 242 254 251 242 254 250 251 248 253 264 267 263 267 254 243 238 240 239 238 238
56 59 60 61 60 58 59 66 68 67 69 69 69 67 66 66 65 271 249 251 247 241 230 237 237 250 258 262 265 264 264 263 275 274 268 261 260 249 244 238 240 240 239
58 58 60 58 57 60 61 59 61 70 68 66 63 63 65 63 59 54 47 3 322 277 253 272 253 248 259 270 254 254 255 264 253 255 256 256 255 260 251 245 240 239 238
59 61 62 62 60 57 57 58 62 64 61 64 64 66 62 58 54 52 48 54 55 52 46 38 25 346 286 295 273 271 270 260 254 243 246 234 236 241 249 242 239 238 237
59 59 61 62 62 59 56 57 58 60 61 63 61 55 55 54 51 49 49 49 49 49 48 47 47 40 26 355 303 285 278 269 255 273 253 240 238 237 228 227 233 233 238
61 60 58 59 57 57 55 53 56 57 57 56 55 55 52 49 45 44 45 56 57 54 48 46 45 37 21 24 21 6 310 278 247 258 271 247 242 218 229 215 221 221 218
59 58 58 55 55 50 48 50 49 51 51 51 50 48 45 40 37 38 40 45 45 43 38 35 35 34 41 28 29 34 35 29 22 307 358 328 269 294 260 232 243 254 243